[[{"header":{"parameterUnit":"m.s-1","parameterCategory":1,"la1":30.2991,"la2":30.254,"lo1":-89.0895,"lo2":-89.0444,"dy":0.0017,"dx":0.0017,"nx":28,"ny":28,"refTime":"2025-04-29T03:00:00:Z","depth":0,"parameterNumber":2,"parameterNumberName":"U-component_of_WINDS"},"data":[0,0,0,0,0,0,0,0,0,0,0,0,0,0,0,0,0,0,0,0,0,0,0,0,0,0,0,0,0,0,0,0,0,0,0,0,0,0,0,0,0,0,0,0,0,0,0,0,0,0,0,0,0,0,0,0,0,0,-0.5733,-0.5733,0,-0.5759,-0.5759,-0.5759,-0.5741,-0.574,-0.5739,-0.5739,-0.577,-0.5772,-0.5773,0,0,0,0,0,0,0,0,0,0,0,0,0,-0.5672,-0.5673,-0.5733,-0.5733,-0.5733,-0.5759,-0.5759,-0.5759,-0.5741,-0.574,-0.5739,-0.5738,-0.577,-0.5771,-0.5773,0,0,0,0,0,0,0,0,0,0,0,0,0,-0.5699,-0.5674,-0.5733,-0.5727,-0.5727,-0.5759,-0.5759,-0.5759,-0.5741,-0.574,-0.5739,-0.5738,-0.5769,-0.5771,-0.5774,-0.5813,0,0,-0.5781,-0.5782,0,0,0,0,0,0,0,0,-0.5697,-0.5701,-0.5728,-0.5728,-0.5727,-0.5745,-0.5749,-0.5778,-0.5742,-0.5736,-0.5739,-0.5737,-0.5763,-0.5766,-0.5774,-0.5815,-0.5816,-0.5781,-0.5783,-0.5784,-0.5784,0,0,0,0,0,0,0,-0.5695,-0.57,-0.5743,-0.5728,-0.5728,-0.5725,-0.5727,-0.5755,-0.5757,-0.5737,-0.5735,-0.5738,-0.5763,-0.5771,-0.5774,-0.5817,-0.5781,-0.5783,-0.5785,-0.5786,-0.5893,-0.5895,0,0,0,0,0,0,-0.5693,-0.5698,-0.5742,-0.5744,-0.5709,-0.5727,-0.573,-0.5741,-0.5756,-0.5757,-0.5739,-0.5737,-0.5768,-0.5772,-0.5775,-0.5824,-0.5784,-0.5786,-0.5787,-0.5892,-0.5894,-0.5895,0,0,0,0,0,0,-0.5692,-0.5697,-0.5741,-0.5721,-0.5726,-0.5729,-0.5742,-0.5742,-0.575,-0.5758,-0.5759,-0.5747,-0.5767,-0.5772,-0.5804,-0.5825,-0.5787,-0.5789,-0.589,-0.5892,-0.5894,-0.5921,0,0,0,0,0,0,-0.569,-0.5697,-0.5711,-0.5721,-0.5727,-0.5768,-0.5743,-0.5743,-0.5754,-0.5752,-0.5766,-0.5767,-0.5766,-0.5801,-0.5806,-0.5827,-0.5791,-0.5888,-0.5891,-0.5894,-0.5918,-0.5923,-0.5928,0,0,0,0,0,-0.5688,-0.5718,-0.5712,-0.5717,-0.5744,-0.5769,-0.5773,-0.577,-0.5756,-0.5771,-0.5776,-0.5767,-0.5821,-0.5804,-0.581,-0.5832,-0.5887,-0.589,-0.5893,-0.5916,-0.5922,-0.5928,0,0,0,0,0,0,-0.5712,-0.5719,-0.5712,-0.5746,-0.5757,-0.5766,-0.5785,-0.5777,-0.5794,-0.5791,-0.5788,-0.5792,-0.5825,-0.5832,-0.5813,-0.5872,-0.5852,-0.5857,-0.5867,-0.5873,-0.5878,-0.5876,-0.5793,0,0,0,0,0,-0.5721,-0.5739,-0.5745,-0.5774,-0.578,-0.5781,-0.5792,-0.5789,-0.5801,-0.5806,-0.5813,-0.5826,-0.5847,-0.586,-0.5879,-0.5918,-0.5922,-0.5937,-0.5942,-0.5946,-0.595,-0.5973,-0.598,-0.5905,-0.5905,-0.5905,0,0,-0.574,-0.5746,-0.5758,-0.5779,-0.5787,-0.5808,-0.5786,-0.5808,-0.5823,-0.581,-0.584,-0.5846,-0.5861,-0.5897,-0.5913,-0.5904,-0.5972,-0.595,-0.5953,-0.5955,-0.5977,-0.5984,-0.599,-0.5908,-0.5907,-0.5907,0,0,-0.5786,-0.5792,-0.5817,-0.5825,-0.5837,-0.5838,-0.5844,-0.5854,-0.5857,-0.5887,-0.5878,-0.5897,-0.5931,-0.5943,-0.5953,-0.6003,-0.5995,-0.6009,-0.6036,-0.6058,-0.6064,-0.6069,-0.6088,-0.6095,-0.6013,-0.6013,-0.6013,0,-0.5809,-0.5837,-0.5831,-0.5854,-0.5865,-0.5851,-0.5878,-0.5887,-0.5905,-0.5913,-0.5902,-0.5945,-0.5954,-0.5993,-0.6005,-0.6013,-0.6022,-0.6008,-0.6063,-0.6068,-0.6073,-0.6091,-0.6098,-0.6015,-0.6015,-0.6014,-0.6014,0,-0.5865,-0.5885,-0.5905,-0.5921,-0.5933,-0.5958,-0.5958,-0.5971,-0.5967,-0.597,-0.6001,-0.6011,-0.6033,-0.6041,-0.6038,-0.6081,-0.6074,-0.6063,-0.6043,-0.6082,-0.6099,-0.6106,-0.6017,-0.6017,-0.6016,-0.6016,0,0,-0.5928,-0.594,-0.5947,-0.5955,-0.5967,-0.5983,-0.6008,-0.6027,-0.6039,-0.6052,-0.6074,-0.6103,-0.6093,-0.6105,-0.6102,-0.6122,-0.6162,-0.6108,-0.6108,-0.6119,-0.6211,-0.6221,-0.6229,-0.6157,-0.6158,-0.6159,-0.621,0,-0.5975,-0.6016,-0.6012,-0.6052,-0.6071,-0.6059,-0.6081,-0.6092,-0.6095,-0.6113,-0.6117,-0.6138,-0.6122,-0.6129,-0.6147,-0.6153,-0.6181,-0.6149,-0.6179,-0.618,-0.6177,-0.6237,-0.6247,-0.6295,-0.6217,-0.6218,-0.6219,0,-0.6035,-0.6049,-0.6091,-0.61,-0.6108,-0.6127,-0.6145,-0.6162,-0.6174,-0.6175,-0.6188,-0.6183,-0.621,-0.6188,-0.6226,-0.6204,-0.6216,-0.6221,-0.6223,-0.6227,-0.6203,-0.6244,-0.631,-0.6318,-0.6229,-0.6228,-0.6227,0,-0.6078,-0.6107,-0.6136,-0.6142,-0.6154,-0.6168,-0.6174,-0.6185,-0.6197,-0.6213,-0.6221,-0.624,-0.6251,-0.6267,-0.6268,-0.6251,-0.6307,-0.6285,-0.631,-0.631,-0.6323,-0.6323,-0.6393,-0.6329,-0.6328,-0.6328,-0.6328,0,-0.6132,-0.6158,-0.6155,-0.6173,-0.6203,-0.6198,-0.6228,-0.6232,-0.6242,-0.6262,-0.6253,-0.6272,-0.6271,-0.6291,-0.6292,-0.6324,-0.6329,-0.6332,-0.6332,-0.6334,-0.6334,-0.6343,-0.634,-0.633,-0.633,-0.6329,-0.6329,0,-0.6186,-0.6184,-0.6215,-0.6223,-0.6225,-0.6247,-0.6255,-0.6273,-0.6274,-0.63,-0.6306,-0.6309,-0.6333,-0.6334,-0.6362,-0.6362,-0.6401,-0.6397,-0.6397,-0.6397,-0.6422,-0.642,-0.6503,-0.6514,-0.644,-0.6441,-0.6442,0,-0.6221,-0.624,-0.625,-0.6262,-0.6268,-0.6287,-0.6299,-0.6295,-0.6308,-0.6324,-0.634,-0.6362,-0.6379,-0.6417,-0.6424,-0.6445,-0.6442,-0.6469,-0.6446,-0.6447,-0.6444,-0.6444,-0.6447,-0.6475,-0.6476,-0.6476,-0.6477,0,-0.6284,-0.6282,-0.6298,-0.6314,-0.6328,-0.6341,-0.6354,-0.6364,-0.6362,-0.6378,-0.64,-0.6413,-0.6441,-0.6463,-0.6484,-0.6492,-0.6485,-0.6484,-0.6491,-0.6494,-0.6493,-0.6495,-0.6411,-0.6483,-0.6482,-0.6482,-0.6481,-0.6481,-0.633,-0.6347,-0.6356,-0.6375,-0.6384,-0.6395,-0.6412,-0.6416,-0.6434,-0.6455,-0.6452,-0.6477,-0.6491,-0.6517,-0.6526,-0.6548,-0.6539,-0.6549,-0.6552,-0.6555,-0.6558,-0.6488,-0.6551,-0.6551,-0.6551,-0.6551,-0.6551,0,-0.6394,-0.6399,-0.6416,-0.6432,-0.6448,-0.6437,-0.645,-0.6464,-0.6486,-0.6498,-0.6515,-0.6542,-0.6563,-0.6571,-0.6593,-0.6608,-0.6606,-0.6615,-0.6614,-0.6616,-0.6564,-0.6556,-0.6616,-0.6616,-0.6616,-0.6616,-0.6616,-0.6616,-0.6429,-0.6458,-0.6457,-0.6491,-0.6496,-0.6519,-0.6528,-0.6539,-0.6549,-0.6578,-0.6596,-0.66,-0.661,-0.6633,-0.6653,-0.6655,-0.6664,-0.6674,-0.6675,-0.6626,-0.662,-0.6614,-0.6606,-0.6676,-0.6676,-0.6726,-0.6726,-0.6727]},{"header":{"parameterUnit":"m.s-1","parameterCategory":1,"la1":30.2991,"la2":30.254,"lo1":-89.0895,"lo2":-89.0444,"dy":0.0017,"dx":0.0017,"nx":28,"ny":28,"refTime":"2025-04-29T03:00:00:Z","depth":0,"parameterNumber":3,"parameterNumberName":"V-component_of_WINDS"},"data":[0,0,0,0,0,0,0,0,0,0,0,0,0,0,0,0,0,0,0,0,0,0,0,0,0,0,0,0,0,0,0,0,0,0,0,0,0,0,0,0,0,0,0,0,0,0,0,0,0,0,0,0,0,0,0,0,0,0,2.9722,2.9723,0,2.9747,2.9747,2.9747,2.9725,2.9725,2.9724,2.9723,2.9745,2.9746,2.9748,0,0,0,0,0,0,0,0,0,0,0,0,0,2.9653,2.9655,2.9722,2.9723,2.9723,2.9747,2.9747,2.9747,2.9726,2.9725,2.9723,2.9722,2.9745,2.9746,2.9748,0,0,0,0,0,0,0,0,0,0,0,0,0,2.9681,2.9655,2.9722,2.9715,2.9715,2.9747,2.9747,2.9747,2.9726,2.9725,2.9723,2.9722,2.9744,2.9746,2.9748,2.9788,0,0,2.9755,2.9755,0,0,0,0,0,0,0,0,2.9679,2.9684,2.9716,2.9716,2.9715,2.9732,2.9731,2.9761,2.9726,2.9721,2.9723,2.9721,2.9741,2.9744,2.9751,2.9789,2.979,2.9755,2.9756,2.9757,2.9758,0,0,0,0,0,0,0,2.9678,2.9682,2.9732,2.9716,2.9716,2.9709,2.9712,2.9736,2.9738,2.9722,2.972,2.9724,2.9741,2.9749,2.9751,2.979,2.9755,2.9757,2.9758,2.9759,2.9861,2.9862,0,0,0,0,0,0,2.9677,2.9681,2.9731,2.9733,2.9694,2.9712,2.9715,2.9728,2.9738,2.9739,2.9725,2.9723,2.9746,2.9749,2.9752,2.9799,2.9757,2.9759,2.976,2.9859,2.9861,2.9862,0,0,0,0,0,0,2.9675,2.9682,2.973,2.9706,2.9712,2.9714,2.9729,2.9729,2.9737,2.974,2.974,2.9733,2.9745,2.9749,2.9779,2.9799,2.976,2.9762,2.9857,2.986,2.9862,2.9893,0,0,0,0,0,0,2.9674,2.9681,2.9697,2.9707,2.9713,2.9758,2.9731,2.973,2.9741,2.9738,2.9748,2.9748,2.9744,2.9776,2.9781,2.9802,2.9763,2.9856,2.9858,2.9861,2.989,2.9896,2.9901,0,0,0,0,0,2.9671,2.9704,2.9698,2.9704,2.9733,2.9759,2.9762,2.9758,2.9743,2.9758,2.976,2.9748,2.9796,2.9779,2.9785,2.9806,2.9854,2.9858,2.9861,2.9888,2.9895,2.9901,0,0,0,0,0,0,2.9695,2.9705,2.9699,2.9736,2.9747,2.9755,2.9774,2.9766,2.9781,2.9777,2.977,2.9773,2.9804,2.9808,2.9789,2.9845,2.9823,2.9827,2.9841,2.9848,2.9853,2.9851,2.9765,0,0,0,0,0,2.9705,2.9726,2.9733,2.9766,2.9772,2.9772,2.9783,2.9779,2.979,2.9794,2.9798,2.9808,2.9825,2.9837,2.9853,2.9891,2.9892,2.9908,2.9913,2.9918,2.9921,2.9941,2.9948,2.9873,2.9873,2.9873,0,0,2.9726,2.9734,2.9747,2.9771,2.9779,2.9799,2.9776,2.9799,2.9814,2.9797,2.9826,2.9829,2.984,2.9874,2.9889,2.9878,2.9943,2.9922,2.9925,2.9927,2.9945,2.9952,2.9959,2.9875,2.9875,2.9875,0,0,2.9773,2.9782,2.981,2.9818,2.9831,2.9831,2.9838,2.9848,2.985,2.9879,2.9866,2.9883,2.9913,2.9921,2.9929,2.998,2.9969,2.9985,3.0013,3.0032,3.0038,3.0044,3.0061,3.0068,2.9989,2.9989,2.9989,0,2.9797,2.9829,2.9825,2.9849,2.9859,2.9845,2.9873,2.9881,2.9898,2.9905,2.9893,2.993,2.9936,2.9972,2.9984,2.9991,2.9998,2.9984,3.0038,3.0043,3.0048,3.0065,3.0071,2.9991,2.9991,2.9991,2.9991,0,2.9856,2.9879,2.9899,2.9917,2.993,2.9955,2.9954,2.9967,2.9962,2.9963,2.9993,3.0,3.0017,3.0025,3.002,3.0059,3.0052,3.0039,3.0017,3.0057,3.0073,3.0079,2.9994,2.9993,2.9993,2.9992,0,0,2.992,2.9935,2.9943,2.9951,2.9964,2.998,3.0005,3.0023,3.0034,3.0046,3.0066,3.0092,3.008,3.0089,3.0084,3.0101,3.0141,3.0086,3.0086,3.0096,3.0184,3.0194,3.0202,3.0134,3.0135,3.0136,3.0183,0,2.9968,3.0012,3.0009,3.005,3.007,3.0057,3.0078,3.0088,3.009,3.0106,3.0108,3.0126,3.0109,3.0114,3.0131,3.0132,3.0158,3.0129,3.0151,3.0152,3.0149,3.021,3.022,3.0265,3.0189,3.0191,3.0191,0,3.0029,3.0045,3.0088,3.0098,3.0106,3.0126,3.0142,3.0158,3.0168,3.0168,3.0179,3.0171,3.0195,3.0172,3.0205,3.0185,3.0194,3.0196,3.0197,3.0199,3.0174,3.0213,3.0279,3.0285,3.0201,3.02,3.0199,0,3.0071,3.0102,3.0132,3.0139,3.0152,3.0166,3.0171,3.018,3.0191,3.0205,3.0212,3.0228,3.0236,3.0248,3.0245,3.0229,3.0278,3.0255,3.0277,3.0278,3.0288,3.0287,3.0356,3.0294,3.0294,3.0294,3.0294,0,3.0125,3.0152,3.0151,3.017,3.0199,3.0195,3.0224,3.0228,3.0236,3.0254,3.0244,3.026,3.0255,3.0272,3.0269,3.0296,3.03,3.03,3.0299,3.0301,3.0301,3.0306,3.0303,3.0296,3.0296,3.0295,3.0295,0,3.0176,3.0177,3.0209,3.0218,3.0221,3.0242,3.025,3.0267,3.0268,3.0291,3.0296,3.0297,3.0316,3.0314,3.0334,3.0333,3.0366,3.0361,3.0363,3.0361,3.0384,3.0382,3.0459,3.0468,3.04,3.0401,3.0402,0,3.021,3.0231,3.0243,3.0255,3.0261,3.0281,3.0292,3.0288,3.03,3.0314,3.0329,3.0347,3.0361,3.0391,3.0394,3.0409,3.0405,3.043,3.0407,3.0408,3.0405,3.0403,3.0405,3.0435,3.0436,3.0436,3.0437,0,3.0271,3.027,3.0287,3.0305,3.0319,3.0332,3.0344,3.0354,3.0351,3.0365,3.0385,3.0396,3.0418,3.0435,3.045,3.0455,3.0445,3.0444,3.045,3.0452,3.0452,3.0452,3.0375,3.0443,3.0442,3.0442,3.0441,3.0441,3.0314,3.0332,3.0343,3.0362,3.0371,3.0383,3.0399,3.0402,3.0419,3.0437,3.0433,3.0455,3.0465,3.0484,3.049,3.0506,3.0497,3.0506,3.0508,3.051,3.0513,3.045,3.0509,3.0509,3.0509,3.0509,3.0508,0,3.0374,3.038,3.0398,3.0416,3.0431,3.0422,3.0434,3.0447,3.0467,3.0477,3.0492,3.0514,3.0531,3.0535,3.0551,3.0563,3.0559,3.0568,3.0566,3.0568,3.052,3.0513,3.0571,3.0571,3.0571,3.0571,3.0571,3.057,3.0406,3.0436,3.0436,3.047,3.0476,3.0498,3.0506,3.0516,3.0524,3.055,3.0564,3.0567,3.0574,3.0591,3.0606,3.0606,3.0612,3.0623,3.0621,3.0577,3.0571,3.0565,3.0558,3.0624,3.0624,3.0667,3.0668,3.0668]}]]